This is the latest recevied weather packets stored in our database for station/object F5IOR-13. If no packets are shown the sender has not sent any weather packets the latest 10 day(s).
| Time | Temp. | Humidity | Pressure | Rain* | Wind** | Luminosity | Snow |
|---|---|---|---|---|---|---|---|
| 1777550906 | 24.44° C | 39% | 989.4 hPa | 0 mm | - | - | - |
| 1777549106 | 23.89° C | 44% | 989.4 hPa | 0 mm | - | - | - |
| 1777547306 | 22.78° C | 53% | 989.6 hPa | 0 mm | - | - | - |
| 1777545506 | 21.67° C | 56% | 989.5 hPa | 0 mm | - | - | - |
| 1777543706 | 20° C | 59% | 989.5 hPa | 0 mm | - | - | - |
| 1777541906 | 19.44° C | 60% | 989.4 hPa | 0 mm | - | - | - |
| 1777540946 | 17.78° C | 61% | 989.2 hPa | 0 mm | - | - | - |
| 1777539986 | 17.22° C | 61% | 989.2 hPa | 0 mm | - | - | - |
| 1777539026 | 16.67° C | 60% | 989.2 hPa | 0 mm | - | - | - |
| 1777538066 | 15° C | 60% | 989.1 hPa | 0 mm | - | - | - |
| 1777537586 | 15° C | 60% | 989.1 hPa | 0 mm | - | - | - |
| 1777537106 | 15° C | 60% | 989.1 hPa | 0 mm | - | - | - |
| 1777536626 | 14.44° C | 60% | 989.2 hPa | 0 mm | - | - | - |
| 1777536146 | 14.44° C | 60% | 989.2 hPa | 0 mm | - | - | - |
| 1777535906 | 13.89° C | 60% | 989.3 hPa | 0 mm | - | - | - |
| 1777535666 | 13.89° C | 60% | 989.3 hPa | 0 mm | - | - | - |
| 1777535426 | 13.89° C | 60% | 989.3 hPa | 0 mm | - | - | - |
| 1777535186 | 13.89° C | 60% | 989.3 hPa | 0 mm | - | - | - |
| 1777535066 | 13.89° C | 60% | 989.3 hPa | 0 mm | - | - | - |
| 1777534946 | 13.89° C | 60% | 989.3 hPa | 0 mm | - | - | - |
| 1777534826 | 13.89° C | 60% | 989.3 hPa | 0 mm | - | - | - |
| 1777534706 | 13.89° C | 60% | 989.3 hPa | 0 mm | - | - | - |
| 1777534646 | 13.89° C | 60% | 989.3 hPa | 0 mm | - | - | - |
| 1777534586 | 13.89° C | 60% | 989.3 hPa | 0 mm | - | - | - |
| 1777534526 | 13.89° C | 60% | 989.3 hPa | 0 mm | - | - | - |
* Rain latest hour (hover to see other rain measurements)
** Current wind speed in m/s (hover to see current wind gust speed)